User: anonymous   Login
Location: Theydon Bois
(51.6750°N, 0.1050°E)
Time: 22:05:30
(UTC+00:00)
Language:

SPOT 5 - Orbit

View from above orbital plane
View from above orbital plane
View from above satellite
View from above satellite

Ground track
Ground track

The orbit data is extracted from the following two-line orbital elements,

1 27421U 02021A   18049.51979014  .00000013  00000-0  14791-4 0  9999
2 27421  98.3736 117.6527 0134007 294.4506  64.2761 14.51914993821416
Epoch (UTC): 18 February 2018 12:28:29
Eccentricity: 0.0134007
inclination: 98.3736°
perigee height: 624 km
apogee height: 814 km
right ascension of ascending node: 117.6527°
argument of perigee: 294.4506°
revolutions per day: 14.51914993
mean anomaly at epoch: 64.2761°
orbit number at epoch: 82141

The dashed part of the orbit path shows where the satellite is in the earth's shadow,  

DLR